This is the latest recevied weather packets stored in our database for station/object W9KHP-1. If no packets are shown the sender has not sent any weather packets the latest 10 day(s).
| Time | Temp. | Humidity | Pressure | Rain* | Wind** | Luminosity | Snow |
|---|---|---|---|---|---|---|---|
| 1777905044 | 18.89° C | 66% | 1013 hPa | 0 mm | - | 288 W/m² | - |
| 1777904741 | 18.33° C | 67% | 1013 hPa | 0 mm | - | 148 W/m² | - |
| 1777904438 | 18.33° C | 66% | 1013.3 hPa | 0 mm | - | 181 W/m² | - |
| 1777904135 | 18.33° C | 65% | 1012.9 hPa | 0 mm | - | 83 W/m² | - |
| 1777903832 | 18.33° C | 66% | 1013.1 hPa | 0 mm | - | 244 W/m² | - |
| 1777903528 | 18.33° C | 65% | 1013.2 hPa | 0 mm | - | 227 W/m² | - |
| 1777903225 | 17.78° C | 69% | 1013.1 hPa | 0 mm | - | 138 W/m² | - |
| 1777902921 | 17.78° C | 68% | 1013.1 hPa | 0 mm | - | 164 W/m² | - |
| 1777902618 | 17.78° C | 67% | 1013.4 hPa | 0 mm | - | 121 W/m² | - |
| 1777902315 | 17.78° C | 67% | 1013.3 hPa | 0 mm | - | 193 W/m² | - |
| 1777902012 | 17.78° C | 69% | 1013.4 hPa | 0 mm | - | 245 W/m² | - |
| 1777901710 | 17.22° C | 68% | 1013.4 hPa | 0 mm | - | 173 W/m² | - |
| 1777901407 | 17.22° C | 71% | 1013.4 hPa | 0 mm | - | 150 W/m² | - |
| 1777901105 | 16.67° C | 71% | 1013.5 hPa | 0 mm | - | 188 W/m² | - |
| 1777900802 | 16.11° C | 72% | 1013.5 hPa | 0 mm | - | 153 W/m² | - |
| 1777900499 | 15.56° C | 75% | 1013.6 hPa | 0 mm | - | 200 W/m² | - |
| 1777900196 | 15° C | 78% | 1013.5 hPa | 0 mm | - | 103 W/m² | - |
| 1777899893 | 14.44° C | 78% | 1013.8 hPa | 0 mm | - | 87 W/m² | - |
| 1777899589 | 14.44° C | 79% | 1013.8 hPa | 0 mm | - | 93 W/m² | - |
| 1777899287 | 13.89° C | 78% | 1013.7 hPa | 0 mm | - | 76 W/m² | - |
| 1777898984 | 13.89° C | 79% | 1013.5 hPa | 0 mm | - | 69 W/m² | - |
| 1777898681 | 13.89° C | 77% | 1013.8 hPa | 0 mm | - | 60 W/m² | - |
| 1777898378 | 13.89° C | 79% | 1013.6 hPa | 0 mm | - | 70 W/m² | - |
| 1777898076 | 13.89° C | 78% | 1013.6 hPa | 0 mm | - | 66 W/m² | - |
| 1777897772 | 13.89° C | 79% | 1013.5 hPa | 0 mm | - | 60 W/m² | - |
* Rain latest hour (hover to see other rain measurements)
** Current wind speed in m/s (hover to see current wind gust speed)